Regional Weather Roundup
Issued by NWS

Home | Current Version | Previous Version | Text Only | Print | Product List | Glossary Off
Versions: 1 2 3 4 5 6 7 8 9 10 11 12 13 14 15 16 17 18 19 20 21 22 23 24 25

000
ASUS45 KCYS 220410
RWRWY

WYOMING REGIONAL WEATHER ROUNDUP
NATIONAL WEATHER SERVICE CHEYENNE WY
1000 PM MDT TUE MAR 21 2017

NOTE:  "FAIR" INDICATES FEW OR NO CLOUDS BELOW 12,000 FEET
WITH NO SIGNIFICANT WEATHER AND/OR OBSTRUCTIONS TO VISIBILITY.

WYZ001-220500-
YELLOWSTONE NATIONAL PARK

CITY           SKY/WX    TMP DP  RH WIND       PRES   REMARKS
LK YELLOWSTONE   N/A     30  29  96 CALM      30.00F
W YELLOWSTONE  NOT AVBL

$$
WYZ002>013-054>058-071-098>099-220500-
NORTHERN WYOMING

CITY           SKY/WX    TMP DP  RH WIND       PRES   REMARKS
JACKSON        MOCLDY    37  32  81 CALM      29.96S
CODY           FAIR      35  33  92 S6        29.95F WCI  30
GREYBULL       FAIR      44  39  82 CALM      29.92F
WORLAND        FAIR      42  39  89 CALM      29.93S
SHERIDAN       FAIR      40  35  83 SE10      29.93F WCI  33
BUFFALO        MOCLDY    38  34  85 SE18      29.95F WCI  28
GILLETTE       CLOUDY    35  33  92 S28G38    30.02F WCI  22
HULETT         FAIR      32  30  93 CALM      30.09R
NEWCASTLE      FAIR      37  30  75 SE16G25   30.12R WCI  28

$$
WYZ014>020-022>026-101>103-220500-
CENTRAL WYOMING

CITY           SKY/WX    TMP DP  RH WIND       PRES   REMARKS
BIG PINEY      CLOUDY    35  32  88 CALM      30.02S
PINEDALE       CLOUDY    34  32  93 NW3       30.03S
DUBOIS         FAIR      36  32  87 CALM      30.00S
LANDER         FAIR      42  36  79 CALM      29.96R
RIVERTON       FAIR      43  37  79 NW7       29.96S
CASPER         MOCLDY    46  42  86 E9        29.99S
DOUGLAS        FAIR      47  39  74 SE15      30.05F

$$
WYZ021-027>030-104>119-220500-
SOUTHERN WYOMING

CITY           SKY/WX    TMP DP  RH WIND       PRES   REMARKS
EVANSTON       MOCLDY    49  27  42 SW20      29.99R
KEMMERER         N/A     45  30  57 SE5       30.02S
FORT BRIDGER   FAIR      45  31  58 S10       30.04S
ROCK SPRINGS   FAIR      50  29  44 S5        30.02F
DIXON            N/A     53  28  38 CALM      30.08S
RAWLINS        FAIR      49  25  39 W3        30.04S
SARATOGA       FAIR      52  27  37 S13G18    30.07F
LARAMIE        MOCLDY    43  34  70 SE21G32   30.11F
CHEYENNE       FAIR      43  32  65 SE15G30   30.14S
TORRINGTON     MOCLDY    46  29  51 SE13      30.14R
PINE BLUFFS    FAIR      41  25  52 SE22G32   30.14R

$$




USA.gov is the U.S. government's official web portal to all federal, state and local government web resources and services.